Location: Summit Observatory
(39.5293°N, 75.7290°W)
Time: 22:20:16
(UTC-05:00)

Amateur Radio Satellites - All Passes

Search period start: 08 February 2016 21:50
Search period end: 09 February 2016 21:50
Location: Summit Observatory, 39.5293°N, 75.7290°W

Satellite Date Start Highest point End Downlink Frequencies (MHz)
Time Altitude Azimuth
AISAT 08 Feb 22:02:25 22:06:24 32° 70° (ENE) 22:10:23 437.250
ISS 08 Feb 22:04:10 22:07:11 34° 30° (NNE) 22:10:11 145.825
Cosmos 2499 08 Feb 22:04:23 22:12:18 47° 272° (W) 22:19:38 435.465 / 435.565
HUMSAT D 08 Feb 22:08:34 22:12:25 40° 262° (W) 22:16:16 437.325/437.525
POLYITAN 1 08 Feb 22:17:08 22:18:34 11° 91° (E) 22:19:59 437.675
QB50P2 08 Feb 22:17:36 22:19:18 12° 91° (E) 22:21:01 145.880/145.840
ESTCUBE 1 08 Feb 22:18:34 22:22:57 52° 73° (ENE) 22:27:22 437.505/2401.250
UKube-1 08 Feb 22:22:18 22:26:28 47° 72° (ENE) 22:30:38 .
CUBEBUG 1 08 Feb 22:25:38 22:29:52 45° 72° (ENE) 22:34:06 437.445
ANTELSAT 08 Feb 22:31:11 22:35:32 78° 104° (ESE) 22:39:57 437.575/2403.000
DX 1 08 Feb 22:31:46 22:36:08 72° 75° (ENE) 22:40:31 434.975-435.025
SPROUT 08 Feb 22:35:00 22:38:08 20° 67° (ENE) 22:41:16 437.525
TIGRISAT 08 Feb 22:38:32 22:42:52 89° 89° (E) 22:47:17 435.000
POPSAT HIP 1 08 Feb 22:46:12 22:49:41 25° 96° (E) 22:53:07 437.405
TISAT 1 08 Feb 22:51:10 22:52:18 11° 63° (ENE) 22:53:27 437.305
NANOSAT C BR1 08 Feb 22:51:37 22:55:14 28° 96° (E) 22:58:51 145.865
DUCHIFAT 1 08 Feb 22:53:37 22:57:15 28° 96° (E) 23:00:51 145.980
QB50P1 08 Feb 22:58:40 23:02:32 35° 97° (E) 23:06:23 145.935-145.965
50 SAT 08 Feb 23:20:46 23:23:44 23° 264° (W) 23:26:44 437.505
VELOX 1 08 Feb 23:22:15 23:26:19 34° 262° (W) 23:30:26 145.980
AIST 1 08 Feb 23:22:19 23:22:52 10° 277° (W) 23:23:27
UNISAT 6 08 Feb 23:23:16 23:26:57 28° 290° (WNW) 23:30:41 437.425
AISAT 08 Feb 23:39:25 23:42:55 22° 265° (W) 23:46:25 437.250
ISS 08 Feb 23:40:49 23:43:32 25° 227° (SW) 23:46:15 145.825
RS-15 08 Feb 23:46:22 23:52:05 15° 265° (W) 23:57:50 29.354- 29.394
POLYITAN 1 08 Feb 23:50:36 23:54:42 54° 286° (WNW) 23:58:48 437.675
SWISSCUBE 08 Feb 23:51:16 23:52:54 12° 61° (ENE) 23:54:32 437.505
QB50P2 08 Feb 23:51:20 23:55:26 51° 286° (WNW) 23:59:30 145.880/145.840
ESTCUBE 1 08 Feb 23:57:39 00:00:04 14° 269° (W) 00:02:28 437.505/2401.250
BUGSAT 1 09 Feb 00:00:20 00:04:24 89° 99° (E) 00:08:25 437.445
UKube-1 09 Feb 00:00:22 00:02:45 14° 268° (W) 00:05:09 .
CUBEBUG 1 09 Feb 00:03:41 00:06:22 16° 268° (W) 00:09:03 437.445
SPROUT 09 Feb 00:09:57 00:13:52 34° 262° (W) 00:17:49 437.525
POPSAT HIP 1 09 Feb 00:21:56 00:25:23 25° 291° (WNW) 00:28:51 437.405
TISAT 1 09 Feb 00:23:13 00:27:25 66° 259° (W) 00:31:38 437.305
ITUPSAT 1 09 Feb 00:25:03 00:28:46 23° 66° (ENE) 00:32:29 437.325
CUSAT 1 09 Feb 00:27:11 00:32:58 23° 83° (E) 00:38:52 437.405
NANOSAT C BR1 09 Feb 00:27:33 00:30:50 23° 292° (WNW) 00:34:07 145.865
DUCHIFAT 1 09 Feb 00:29:33 00:32:49 22° 292° (WNW) 00:36:04 145.980
BEESAT 09 Feb 00:33:56 00:37:58 28° 68° (ENE) 00:42:02 436.000
PHONESAT 2.4 09 Feb 00:33:59 00:36:24 19° 149° (SSE) 00:38:50 2401.200-2431.200
QB50P1 09 Feb 00:35:09 00:38:04 19° 293° (WNW) 00:40:59 145.935-145.965
Cosmos 2491 09 Feb 00:39:29 00:45:05 18° 63° (ENE) 00:50:40 435.465 / 435.565
JAS-2 09 Feb 00:41:06 00:44:35 17° 89° (E) 00:47:55 435.910
DANDE 09 Feb 00:50:55 00:56:09 20° 80° (E) 01:01:43 436.750
Oscar 19 09 Feb 00:56:55 01:01:36 35° 97° (E) 01:06:14 437.125/150
BEESAT 3 09 Feb 01:14:40 01:17:29 18° 47° (NE) 01:20:17 437.485
Gurwin Techsat 1B 09 Feb 01:18:57 01:22:58 21° 94° (E) 01:26:57 435.225
SWISSCUBE 09 Feb 01:25:16 01:30:01 78° 257° (WSW) 01:34:50 437.505
YUBILEINY 09 Feb 01:31:48 01:36:07 15° 76° (ENE) 01:40:26 435.215
BEESAT 2 09 Feb 01:36:39 01:39:40 20° 47° (NE) 01:42:39 435.950
ITUPSAT 1 09 Feb 02:02:00 02:06:22 36° 262° (W) 02:10:48 437.325
ITAMSAT 1 09 Feb 02:03:18 02:07:49 29° 96° (E) 02:12:19 435.822/435.867
CUSAT 1 09 Feb 02:06:35 02:14:26 77° 281° (W) 02:22:35 437.405
PHONESAT 2.4 09 Feb 02:10:05 02:13:21 72° 165° (SSE) 02:16:37 2401.200-2431.200
BEESAT 09 Feb 02:11:35 02:15:40 29° 264° (W) 02:19:49 436.000
STARS 09 Feb 02:18:27 02:22:03 25° 68° (ENE) 02:25:39 437.465
MOZHAYETS 4 09 Feb 02:18:32 02:21:35 18° 65° (ENE) 02:24:39
JAS-2 09 Feb 02:24:39 02:30:14 55° 289° (WNW) 02:35:21 435.910
DANDE 09 Feb 02:30:23 02:37:56 85° 279° (W) 02:46:31 436.750
KKS-1 09 Feb 02:31:34 02:35:59 66° 74° (ENE) 02:40:26 437.445
Cosmos 2491 09 Feb 02:34:22 02:43:10 90° 75° (ENE) 02:51:58 435.465 / 435.565
Oscar 19 09 Feb 02:36:30 02:40:45 27° 293° (WNW) 02:44:59 437.125/150
BEESAT 3 09 Feb 02:51:41 02:55:26 41° 244° (WSW) 02:59:07 437.485
Gurwin Techsat 1B 09 Feb 02:58:02 03:03:06 46° 290° (WNW) 03:08:09 435.225
BEESAT 2 09 Feb 03:13:59 03:17:41 37° 245° (WSW) 03:21:20 435.950
AO-7 09 Feb 03:21:21 03:29:12 43° 100° (E) 03:36:58 29.400- 29.500
YUBILEINY 09 Feb 03:22:39 03:31:25 82° 95° (E) 03:40:16 435.215
AIST 2 09 Feb 03:22:55 03:26:28 27° 50° (NE) 03:29:59 435.215
SO-50 09 Feb 03:40:04 03:41:42 12° 106° (ESE) 03:43:20 436.795
ITAMSAT 1 09 Feb 03:42:36 03:47:16 34° 292° (WNW) 03:51:55 435.822/435.867
Cosmos 2504 09 Feb 03:43:37 03:50:04 25° 80° (E) 03:56:43 435.465 / 435.565
PHONESAT 2.4 09 Feb 03:47:23 03:50:40 72° 1° (N) 03:53:56 2401.200-2431.200
HORYU 2 09 Feb 03:51:06 03:54:52 27° 96° (E) 03:58:38 437.375
CUSAT 1 09 Feb 03:53:09 03:57:57 17° 299° (WNW) 04:02:48 437.405
MOZHAYETS 4 09 Feb 03:54:04 03:58:24 44° 261° (W) 04:02:47
STARS 09 Feb 03:54:31 03:58:19 28° 264° (W) 04:02:07 437.465
KKS-1 09 Feb 04:11:53 04:12:58 11° 270° (W) 04:14:03 437.445
DANDE 09 Feb 04:16:52 04:22:13 19° 299° (WNW) 04:27:52 436.750
M-CUBED/EXP-1 PRIME 09 Feb 04:28:50 04:32:14 88° 279° (W) 04:35:47 437.505
CUBESAT XI-V 09 Feb 04:31:42 04:36:09 45° 72° (ENE) 04:40:39 437.345
Cosmos 2491 09 Feb 04:33:41 04:38:43 17° 283° (WNW) 04:43:46 435.465 / 435.565
AUBIESAT-1 09 Feb 04:39:33 04:42:59 79° 288° (WNW) 04:46:36 437.475
STRAND 1 09 Feb 04:51:24 04:52:45 11° 59° (ENE) 04:54:06 437.568
AIST 2 09 Feb 05:01:24 05:04:54 27° 247° (WSW) 05:08:24 435.215
CUTE-I 09 Feb 05:13:54 05:17:13 16° 92° (E) 05:20:31 437.470
AO-7 09 Feb 05:14:13 05:21:53 42° 298° (WNW) 05:29:30 29.400- 29.500
SO-50 09 Feb 05:16:36 05:21:30 81° 303° (WNW) 05:26:29 436.795
YUBILEINY 09 Feb 05:23:06 05:29:17 21° 296° (WNW) 05:35:32 435.215
PHONESAT 2.4 09 Feb 05:24:43 05:27:57 59° 199° (SSW) 05:31:10 2401.200-2431.200
Cubesat XI-IV 09 Feb 05:26:41 05:30:48 22° 94° (E) 05:34:52 437.490
HORYU 2 09 Feb 05:27:38 05:31:21 27° 292° (WNW) 05:35:05 437.375
Cosmos 2504 09 Feb 05:34:05 05:42:34 70° 280° (W) 05:51:28 435.465 / 435.565
LilacSat-2 09 Feb 05:53:50 05:57:12 30° 97° (E) 06:00:33 437.200
CUBESAT XI-V 09 Feb 06:10:39 06:13:45 17° 268° (W) 06:16:52 437.345
BRITE-PL 09 Feb 06:19:32 06:23:53 35° 96° (E) 06:27:56 437.365/2234.400
STRAND 1 09 Feb 06:26:00 06:31:07 88° 78° (ENE) 06:36:17 437.568
PRISM 09 Feb 06:32:33 06:36:10 30° 70° (ENE) 06:39:49 437.425
HO-68 09 Feb 06:40:50 06:41:31 10° 87° (E) 06:42:12 435.675
CUTE-I 09 Feb 06:52:21 06:57:39 60° 287° (WNW) 07:02:56 437.470
GONETS M04 09 Feb 06:59:47 07:01:20 11° 73° (ENE) 07:02:52
SO-50 09 Feb 07:00:14 07:02:47 14° 321° (NW) 07:05:21 436.795
PHONESAT 2.4 09 Feb 07:02:54 07:04:48 15° 213° (SSW) 07:06:42 2401.200-2431.200
Cubesat XI-IV 09 Feb 07:05:56 07:11:03 46° 290° (WNW) 07:16:09 437.490
CUTE 1.7 + AOD 2 09 Feb 07:12:47 07:14:27 12° 91° (E) 07:16:07 437.475
DOVE 4 09 Feb 07:15:44 07:19:34 32° 97° (E) 07:23:17 437.250
SEEDS 09 Feb 07:21:14 07:22:22 11° 90° (E) 07:23:29 437.485
LilacSat-2 09 Feb 07:28:48 07:31:18 17° 292° (WNW) 07:33:47 437.200
GOMX 1 09 Feb 07:29:51 07:34:19 80° 285° (WNW) 07:38:32 467.674
Cosmos 2504 09 Feb 07:33:39 07:37:44 14° 301° (WNW) 07:41:55 435.465 / 435.565
CANX-2 09 Feb 07:55:40 07:59:46 43° 99° (E) 08:03:51 2200.000
BRITE-PL 09 Feb 07:58:31 08:02:06 21° 295° (WNW) 08:05:30 437.365/2234.400
O/OREOS (USA 219) 09 Feb 08:01:57 08:06:25 81° 110° (ESE) 08:10:56 437.305
PRISM 09 Feb 08:08:21 08:11:30 21° 265° (W) 08:14:42 437.425
CINEMA 3 09 Feb 08:16:09 08:20:12 52° 100° (E) 08:24:17 145.822/145.860
HO-68 09 Feb 08:23:09 08:30:22 71° 104° (ESE) 08:37:31 435.675
CUBEBUG 2 09 Feb 08:29:07 08:32:35 25° 96° (E) 08:36:06 437.445
UWE-3 09 Feb 08:31:59 08:35:03 19° 94° (E) 08:38:08 435.000/436.395/437.385
Oscar 11 09 Feb 08:35:36 08:38:47 20° 94° (E) 08:41:58 145.826/435.025
COMPASS 1 09 Feb 08:41:29 08:45:43 71° 101° (ESE) 08:49:56 437.405
UNISAT 6 09 Feb 08:45:22 08:48:30 20° 67° (ENE) 08:51:36 437.425
Cosmos 2499 09 Feb 08:46:18 08:53:28 30° 83° (E) 09:00:45 435.465 / 435.565
CUTE 1.7 + AOD 2 09 Feb 08:46:25 08:50:37 54° 286° (WNW) 08:54:48 437.475
GONETS M04 09 Feb 08:47:46 08:56:20 68° 93° (E) 09:04:57
DOVE 4 09 Feb 08:54:02 08:57:03 19° 293° (WNW) 09:00:00 437.250
SEEDS 09 Feb 08:54:14 08:58:26 59° 285° (WNW) 09:02:37 437.485
DELFI C3 09 Feb 08:57:13 08:59:57 17° 93° (E) 09:02:40 145.870
AAUSAT CUBESAT 2 09 Feb 09:11:01 09:15:11 63° 285° (WNW) 09:19:20 437.432
ZACube-1 09 Feb 09:27:04 09:31:13 58° 100° (E) 09:35:27 437.345
ANTELSAT 09 Feb 09:29:06 09:33:21 60° 75° (ENE) 09:37:35 437.575/2403.000
CANX-2 09 Feb 09:32:37 09:35:16 16° 294° (WNW) 09:37:55 2200.000
TIGRISAT 09 Feb 09:36:13 09:40:31 69° 75° (ENE) 09:44:47 435.000
FUNcube-1 09 Feb 09:36:31 09:40:44 72° 102° (ESE) 09:45:01 145.935
POPSAT HIP 1 09 Feb 09:38:32 09:41:24 18° 67° (ENE) 09:44:16 437.405
NANOSAT C BR1 09 Feb 09:43:30 09:46:34 20° 67° (ENE) 09:49:37 145.865
RS-15 09 Feb 09:44:19 09:51:33 20° 98° (E) 09:58:58 29.354- 29.394
O/OREOS (USA 219) 09 Feb 09:45:09 09:46:26 11° 308° (NW) 09:47:43 437.305
DUCHIFAT 1 09 Feb 09:45:17 09:48:20 20° 67° (ENE) 09:51:23 145.980
PCSat 09 Feb 09:48:39 09:52:37 21° 106° (ESE) 09:56:36 145.827
QB50P1 09 Feb 09:50:36 09:54:02 24° 69° (ENE) 09:57:27 145.935-145.965
HUMSAT D 09 Feb 09:52:48 09:56:32 31° 97° (E) 10:00:18 437.325/437.525
CINEMA 3 09 Feb 09:55:09 09:56:55 13° 296° (WNW) 09:58:41 145.822/145.860
CUBEBUG 2 09 Feb 10:05:43 10:09:09 25° 291° (WNW) 10:12:38 437.445
UWE-3 09 Feb 10:07:49 10:11:34 32° 289° (WNW) 10:15:23 435.000/436.395/437.385
AIST 1 09 Feb 10:09:50 10:13:53 37° 91° (E) 10:17:56
Oscar 11 09 Feb 10:11:03 10:14:59 34° 289° (WNW) 10:18:55 145.826/435.025
HO-68 09 Feb 10:12:04 10:17:23 23° 302° (WNW) 10:22:41 435.675
ESTCUBE 1 09 Feb 10:14:15 10:15:52 12° 90° (E) 10:17:28 437.505/2401.250
AO-85 09 Feb 10:16:33 10:21:47 65° 118° (ESE) 10:27:15 145.980
COMPASS 1 09 Feb 10:20:25 10:20:41 10° 297° (WNW) 10:20:57 437.405
UNISAT 6 09 Feb 10:21:03 10:25:00 34° 262° (W) 10:28:55 437.425
DX 1 09 Feb 10:22:44 10:24:46 13° 92° (E) 10:26:48 434.975-435.025
DELFI C3 09 Feb 10:31:17 10:34:56 33° 288° (WNW) 10:38:35 145.870
Cosmos 2499 09 Feb 10:37:27 10:45:58 60° 282° (WNW) 10:54:47 435.465 / 435.565
POLYITAN 1 09 Feb 10:41:57 10:46:12 85° 260° (W) 10:50:26 437.675
QB50P2 09 Feb 10:42:37 10:46:52 81° 256° (WSW) 10:51:08 145.880/145.840
GONETS M04 09 Feb 10:47:00 10:53:51 25° 293° (WNW) 11:00:47
BUGSAT 1 09 Feb 10:48:50 10:52:56 53° 74° (ENE) 10:57:01 437.445
50 SAT 09 Feb 10:52:29 10:55:56 32° 97° (E) 10:59:22 437.505
JAS-2 09 Feb 10:54:54 10:56:44 11° 55° (NE) 10:58:32 435.910
ZACube-1 09 Feb 11:05:25 11:07:03 12° 296° (WNW) 11:08:42 437.345
ANTELSAT 09 Feb 11:09:22 11:10:26 11° 269° (W) 11:11:30 437.575/2403.000
POPSAT HIP 1 09 Feb 11:12:58 11:16:55 37° 262° (W) 11:20:52 437.405
VELOX 1 09 Feb 11:12:59 11:17:14 45° 99° (E) 11:21:27 145.980
NANOSAT C BR1 09 Feb 11:18:15 11:22:05 33° 262° (W) 11:25:56 145.865
DUCHIFAT 1 09 Feb 11:19:59 11:23:49 33° 263° (W) 11:27:39 145.980
QB50P1 09 Feb 11:26:07 11:29:43 27° 264° (W) 11:33:19 145.935-145.965
HUMSAT D 09 Feb 11:28:55 11:32:00 20° 292° (WNW) 11:35:05 437.325/437.525
AISAT 09 Feb 11:29:25 11:33:51 74° 103° (ESE) 11:38:13 437.250
PCSat 09 Feb 11:30:20 11:35:36 51° 303° (WNW) 11:40:54 145.827
DANDE 09 Feb 11:33:58 11:36:45 13° 55° (NE) 11:39:19 436.750
UKube-1 09 Feb 11:46:06 11:50:27 82° 284° (WNW) 11:54:45 .
ESTCUBE 1 09 Feb 11:48:33 11:53:04 63° 286° (WNW) 11:57:32 437.505/2401.250
AIST 1 09 Feb 11:48:37 11:51:37 18° 288° (WNW) 11:54:37
RS-15 09 Feb 11:50:58 12:02:05 87° 119° (ESE) 12:13:51 29.354- 29.394
CUBEBUG 1 09 Feb 11:51:09 11:55:32 78° 284° (WNW) 11:59:52 437.445
SPROUT 09 Feb 11:56:42 12:00:44 40° 99° (E) 12:04:45 437.525
DX 1 09 Feb 11:57:01 12:01:15 52° 288° (WNW) 12:05:28 434.975-435.025
AO-85 09 Feb 11:58:36 12:02:49 23° 316° (NW) 12:07:06 145.980
TISAT 1 09 Feb 12:09:00 12:12:03 19° 94° (E) 12:15:05 437.305
SO-50 09 Feb 12:10:45 12:12:36 12° 37° (NE) 12:14:25 436.795
Oscar 19 09 Feb 12:12:41 12:17:38 47° 71° (ENE) 12:22:35 437.125/150
SRMSAT 09 Feb 12:17:40 12:18:32 10° 180° (S) 12:19:25 437.500
BUGSAT 1 09 Feb 12:27:02 12:28:37 12° 269° (W) 12:30:12 437.445
50 SAT 09 Feb 12:27:15 12:29:42 17° 293° (WNW) 12:32:10 437.505
JAS-2 09 Feb 12:33:00 12:40:33 60° 72° (ENE) 12:47:28 435.910
AO-7 09 Feb 12:33:25 12:36:11 12° 45° (NE) 12:38:56 29.400- 29.500
Cosmos 2499 09 Feb 12:38:42 12:41:11 11° 304° (WNW) 12:43:42 435.465 / 435.565
Gurwin Techsat 1B 09 Feb 12:38:59 12:43:37 32° 68° (ENE) 12:48:16 435.225
CUSAT 1 09 Feb 12:46:48 12:52:46 79° 79° (ENE) 12:57:11 437.405
VELOX 1 09 Feb 12:50:34 12:53:20 16° 295° (WNW) 12:56:05 145.980
AISAT 09 Feb 13:08:47 13:09:41 11° 299° (WNW) 13:10:36 437.250
DANDE 09 Feb 13:14:17 13:21:26 78° 78° (ENE) 13:26:48 436.750
ITAMSAT 1 09 Feb 13:20:17 13:25:05 40° 70° (ENE) 13:29:56 435.822/435.867
SWISSCUBE 09 Feb 13:26:47 13:30:56 28° 96° (E) 13:35:04 437.505
SPROUT 09 Feb 13:33:40 13:36:22 17° 294° (WNW) 13:39:06 437.525
YUBILEINY 09 Feb 13:34:21 13:42:31 39° 73° (ENE) 13:50:35 435.215
Cosmos 2491 09 Feb 13:40:55 13:46:50 21° 79° (E) 13:52:45 435.465 / 435.565
TISAT 1 09 Feb 13:44:04 13:47:46 31° 289° (WNW) 13:51:28 437.305
SO-50 09 Feb 13:49:12 13:54:01 70° 56° (ENE) 13:58:38 436.795
Oscar 19 09 Feb 13:53:25 13:57:10 20° 267° (W) 14:00:55 437.125/150
ITUPSAT 1 09 Feb 14:02:51 14:07:38 60° 101° (E) 14:12:23 437.325
RS-15 09 Feb 14:06:20 14:16:10 32° 326° (NW) 14:26:29 29.354- 29.394
BEESAT 09 Feb 14:11:41 14:16:30 77° 103° (ESE) 14:21:18 436.000
Gurwin Techsat 1B 09 Feb 14:18:49 14:23:30 31° 264° (W) 14:28:12 435.225
AO-7 09 Feb 14:19:02 14:27:06 55° 65° (ENE) 14:35:11 29.400- 29.500
JAS-2 09 Feb 14:19:29 14:25:45 27° 266° (W) 14:31:43 435.910
KKS-1 09 Feb 14:25:14 14:27:21 13° 92° (E) 14:29:27 437.445
ISS 09 Feb 14:44:14 14:46:14 15° 130° (SE) 14:48:13 145.825
HORYU 2 09 Feb 14:48:38 14:52:06 23° 67° (ENE) 14:55:34 437.375
DANDE 09 Feb 14:59:34 15:02:59 15° 283° (WNW) 15:06:02 436.750
ITAMSAT 1 09 Feb 15:00:35 15:04:40 23° 265° (W) 15:08:48 435.822/435.867
SWISSCUBE 09 Feb 15:04:32 15:08:39 29° 292° (WNW) 15:12:46 437.505
M-CUBED/EXP-1 PRIME 09 Feb 15:15:18 15:19:01 77° 254° (WSW) 15:22:30 437.505
AUBIESAT-1 09 Feb 15:25:35 15:29:15 70° 253° (WSW) 15:32:43 437.475
Cosmos 2504 09 Feb 15:28:36 15:36:47 44° 74° (ENE) 15:44:24 435.465 / 435.565
YUBILEINY 09 Feb 15:31:08 15:39:20 45° 272° (W) 15:47:30 435.215
SO-50 09 Feb 15:31:52 15:33:50 13° 253° (WSW) 15:35:47 436.795
Cosmos 2491 09 Feb 15:33:55 15:42:37 77° 278° (W) 15:51:23 435.465 / 435.565
ITUPSAT 1 09 Feb 15:42:15 15:44:57 15° 297° (WNW) 15:47:39 437.325
STARS 09 Feb 15:44:07 15:48:24 54° 100° (E) 15:52:40 437.465
MOZHAYETS 4 09 Feb 15:49:42 15:54:10 45° 99° (E) 15:58:37
BEESAT 09 Feb 15:51:51 15:53:38 12° 299° (WNW) 15:55:25 436.000
KKS-1 09 Feb 15:59:54 16:04:13 53° 287° (WNW) 16:08:31 437.445
AO-7 09 Feb 16:12:51 16:20:07 33° 263° (W) 16:27:27 29.400- 29.500
ISS 09 Feb 16:19:12 16:22:23 52° 326° (NW) 16:25:34 145.825
HORYU 2 09 Feb 16:24:35 16:28:30 31° 263° (W) 16:32:26 437.375
RS-15 09 Feb 16:26:09 16:34:01 19° 1° (N) 16:42:07 29.354- 29.394
CUBESAT XI-V 09 Feb 16:31:15 16:33:06 12° 90° (E) 16:34:55 437.345
CUTE-I 09 Feb 16:34:34 16:38:52 26° 65° (ENE) 16:43:11 437.470
O/OREOS (USA 219) 09 Feb 16:35:01 16:37:32 14° 54° (NE) 16:40:02 437.305
LilacSat-2 09 Feb 16:36:19 16:38:27 15° 67° (ENE) 16:40:34 437.200
BEESAT 3 09 Feb 16:41:46 16:45:28 38° 116° (ESE) 16:49:12 437.485
Cubesat XI-IV 09 Feb 16:47:39 16:52:21 33° 68° (ENE) 16:57:06 437.490
GOMX 1 09 Feb 17:01:27 17:03:39 13° 62° (ENE) 17:05:48 467.674
BEESAT 2 09 Feb 17:05:06 17:08:55 44° 116° (ESE) 17:12:46 435.950
STARS 09 Feb 17:22:04 17:24:19 14° 296° (WNW) 17:26:32 437.465
Cosmos 2504 09 Feb 17:22:17 17:29:58 38° 275° (W) 17:37:13 435.465 / 435.565
MOZHAYETS 4 09 Feb 17:27:52 17:30:59 18° 295° (WNW) 17:34:05
BRITE-PL 09 Feb 17:27:52 17:33:13 43° 71° (ENE) 17:38:28 437.365/2234.400
Cosmos 2491 09 Feb 17:36:33 17:41:02 15° 300° (WNW) 17:45:32 435.465 / 435.565
ISS 09 Feb 17:57:40 17:59:25 14° 344° (NNW) 18:01:09 145.825
CUBESAT XI-V 09 Feb 18:06:13 18:10:54 64° 285° (WNW) 18:15:31 437.345
LilacSat-2 09 Feb 18:08:54 18:12:27 37° 262° (W) 18:16:01 437.200
O/OREOS (USA 219) 09 Feb 18:12:49 18:17:22 62° 252° (WSW) 18:21:53 437.305
CUTE-I 09 Feb 18:13:43 18:18:41 40° 262° (W) 18:23:41 437.470
DOVE 4 09 Feb 18:19:31 18:24:08 35° 71° (ENE) 18:28:34 437.250
BEESAT 3 09 Feb 18:20:25 18:23:22 20° 313° (NW) 18:26:21 437.485
Cubesat XI-IV 09 Feb 18:27:47 18:32:24 30° 264° (W) 18:37:03 437.490
GOMX 1 09 Feb 18:35:36 18:41:03 86° 257° (WSW) 18:46:18 467.674
PCSat 09 Feb 18:36:46 18:40:20 17° 45° (NE) 18:43:51 145.827
STRAND 1 09 Feb 18:37:46 18:42:23 32° 97° (E) 18:46:58 437.568
RS-15 09 Feb 18:41:13 18:51:51 34° 36° (NE) 19:02:40 29.354- 29.394
BEESAT 2 09 Feb 18:44:13 18:47:02 18° 314° (NW) 18:49:51 435.950
CANX-2 09 Feb 18:47:51 18:51:25 27° 70° (ENE) 18:55:00 2200.000
AO-85 09 Feb 18:49:56 18:54:53 43° 52° (NE) 18:59:25 145.980
HO-68 09 Feb 18:50:31 18:57:19 48° 67° (ENE) 19:04:09 435.675
AIST 2 09 Feb 18:57:13 19:01:22 74° 119° (ESE) 19:05:32 435.215
GONETS M04 09 Feb 18:59:30 19:07:10 32° 70° (ENE) 19:14:47
BRITE-PL 09 Feb 19:07:04 19:11:44 26° 266° (W) 19:16:23 437.365/2234.400
CINEMA 3 09 Feb 19:16:33 19:20:59 45° 73° (ENE) 19:25:14 145.822/145.860
CUBEBUG 2 09 Feb 19:26:57 19:30:06 20° 68° (ENE) 19:33:10 437.445
UWE-3 09 Feb 19:29:09 19:31:34 15° 66° (ENE) 19:33:58 435.000/436.395/437.385
Oscar 11 09 Feb 19:30:30 19:32:50 14° 65° (ENE) 19:35:10 145.826/435.025
COMPASS 1 09 Feb 19:31:24 19:35:16 41° 73° (ENE) 19:39:12 437.405
ISS 09 Feb 19:36:34 19:37:01 10° 5° (N) 19:37:27 145.825
CUTE 1.7 + AOD 2 09 Feb 19:37:47 19:42:00 89° 265° (W) 19:46:15 437.475
SEEDS 09 Feb 19:44:43 19:48:53 82° 76° (ENE) 19:53:06 437.485
PRISM 09 Feb 19:49:48 19:53:56 54° 101° (E) 19:58:00 437.425
DOVE 4 09 Feb 19:57:37 20:01:50 25° 265° (W) 20:05:55 437.250
AAUSAT CUBESAT 2 09 Feb 20:00:05 20:04:11 74° 76° (ENE) 20:08:20 437.432
STRAND 1 09 Feb 20:17:02 20:21:27 29° 293° (WNW) 20:25:51 437.568
PCSat 09 Feb 20:18:55 20:24:22 79° 243° (WSW) 20:29:46 145.827
ZACube-1 09 Feb 20:22:06 20:26:03 39° 72° (ENE) 20:29:57 437.345
CANX-2 09 Feb 20:23:52 20:27:14 23° 265° (W) 20:30:37 2200.000
Cosmos 2499 09 Feb 20:30:37 20:38:47 51° 76° (ENE) 20:46:17 435.465 / 435.565
FUNcube-1 09 Feb 20:31:11 20:35:14 48° 74° (ENE) 20:39:14 145.935
AO-85 09 Feb 20:31:12 20:35:03 23° 251° (WSW) 20:38:40 145.980
AIST 2 09 Feb 20:38:17 20:40:21 13° 317° (NW) 20:42:27 435.215
HO-68 09 Feb 20:38:57 20:45:10 31° 264° (W) 20:51:27 435.675
HUMSAT D 09 Feb 20:44:02 20:47:01 20° 68° (ENE) 20:50:00 437.325/437.525
RS-15 09 Feb 20:53:42 21:05:58 87° 240° (WSW) 21:18:18 29.354- 29.394
CINEMA 3 09 Feb 20:55:21 20:58:17 16° 267° (W) 21:01:09 145.822/145.860
GONETS M04 09 Feb 20:55:51 21:04:19 55° 270° (W) 21:12:50
CUBEBUG 2 09 Feb 21:02:34 21:06:31 33° 263° (W) 21:10:23 437.445
UWE-3 09 Feb 21:03:35 21:07:41 45° 261° (W) 21:11:44 435.000/436.395/437.385
Oscar 11 09 Feb 21:04:22 21:08:32 49° 261° (W) 21:12:43 145.826/435.025
COMPASS 1 09 Feb 21:08:38 21:11:03 15° 268° (W) 21:13:28 437.405
ISS 09 Feb 21:11:49 21:14:25 22° 25° (NNE) 21:17:02 145.825
ESTCUBE 1 09 Feb 21:14:08 21:15:11 11° 61° (ENE) 21:16:13 437.505/2401.250
DELFI C3 09 Feb 21:16:04 21:20:00 66° 258° (WSW) 21:23:59 145.870
DX 1 09 Feb 21:18:33 21:19:57 11° 62° (ENE) 21:21:20 434.975-435.025
ANTELSAT 09 Feb 21:23:12 21:25:17 13° 92° (E) 21:27:21 437.575/2403.000
PRISM 09 Feb 21:26:55 21:28:47 13° 297° (WNW) 21:30:38 437.425
TIGRISAT 09 Feb 21:29:47 21:32:17 15° 93° (E) 21:34:46 435.000
50 SAT 09 Feb 21:33:12 21:35:16 15° 67° (ENE) 21:37:21 437.505
